Location: ??????
(55.8274°N, 37.9338°E)
Time: 21:45:12
(UTC+00:00)

Cosmos 2369 Rocket - Visible Passes

Search period start: 12 July 2024 00:00
Search period end: 22 July 2024 00:00
Orbit: 828 x 851 km, 71.0° (Epoch: 11 July)

Date Brightness Start Highest point End Pass type
(mag) Time Alt. Az. Time Alt. Az. Time Alt. Az.
12 Jul 2.8 22:23:53 15° S 22:28:12 44° ESE 22:33:30 10° NE visible
13 Jul 2.9 00:06:47 10° WSW 00:12:13 49° NW 00:17:43 10° NNE visible
13 Jul 2.9 22:08:34 16° S 22:12:39 42° ESE 22:17:55 10° NE visible
13 Jul 2.8 23:51:10 10° WSW 23:56:38 51° NW 00:02:09 10° NNE visible
14 Jul 2.9 21:53:14 17° S 21:57:06 40° ESE 22:02:20 10° NE visible
14 Jul 2.8 23:35:34 10° SW 23:41:02 53° NW 23:46:35 10° NNE visible
15 Jul 2.9 21:37:52 18° S 21:41:34 38° ESE 21:46:44 10° NE visible
15 Jul 2.7 23:19:57 10° SW 23:25:27 55° NW 23:31:01 10° NNE visible
16 Jul 3.0 21:22:27 18° SSE 21:26:02 37° ESE 21:31:08 10° NE visible
16 Jul 2.7 23:04:21 10° SW 23:09:52 58° NW 23:15:27 10° NNE visible
17 Jul 3.0 21:07:00 18° SSE 21:10:29 35° ESE 21:15:32 10° NE visible
17 Jul 2.6 22:48:46 10° SW 22:54:17 60° NW 22:59:53 10° NNE visible
18 Jul 3.1 20:51:33 18° SSE 20:54:56 33° ESE 20:59:56 10° NE visible
18 Jul 2.6 22:33:17 11° SW 22:38:42 62° NW 22:44:19 10° NNE visible
19 Jul 3.1 20:36:01 17° SSE 20:39:25 32° ESE 20:44:20 10° NE visible
19 Jul 2.5 22:17:46 11° SW 22:23:07 65° NW 22:28:45 10° NNE visible
20 Jul 4.1 00:03:39 10° W 00:08:13 24° NNW 00:12:48 10° NNE visible
20 Jul 3.1 20:20:28 17° SSE 20:23:52 30° ESE 20:28:43 10° NE visible
20 Jul 2.5 22:02:12 11° SW 22:07:32 67° NW 22:13:11 10° NNE visible
20 Jul 4.1 23:47:59 10° W 23:52:36 25° NNW 23:57:14 10° NNE visible
21 Jul 3.2 20:04:50 16° SSE 20:08:20 29° ESE 20:13:07 10° NE visible
21 Jul 2.4 21:46:34 11° SW 21:51:57 70° NW 21:57:37 10° NNE visible
21 Jul 4.1 23:32:20 10° W 23:36:58 26° NNW 23:41:39 10° NNE visible
